Overview Statistics Trail Chart Weather Telemetry Raw packets
 

This is the latest recevied weather packets stored in our database for station/object VA2EYZ-13. If no packets are shown the sender has not sent any weather packets the latest 10 day(s).

<< 1 2 3 4 5 6 7 >>
Time Temp. Humidity Pressure Rain* Wind** Luminosity Snow
1788534967 23.33° C 67% 1012 hPa - - - -
1788534241 23.33° C 68% 1012 hPa - - - -
1788533212 21.67° C 75% 1012 hPa - - - -
1788532588 21.67° C 76% 1011 hPa - - - -
1788530950 21.11° C 78% 1011.9 hPa - - - -
1788530581 20.56° C 79% 1011.9 hPa - - - -
1788529060 20° C 84% 1011 hPa - - - -
1788526494 19.44° C 87% 1012 hPa - - - -
1788526174 19.44° C 87% 1011.8 hPa - - - -
1788525719 18.89° C 88% 1011.8 hPa - - - -
1788523357 18.33° C 90% 1011.8 hPa - - - -
1788521129 17.78° C 90% 1011 hPa - - - -
1788514271 17.22° C 90% 1010 hPa - - - -
1788512304 17.22° C 92% 1010.5 hPa - - - -
1788508439 17.22° C 92% 1010 hPa - - - -
1788507730 17.78° C 92% 1010 hPa - - - -
1788501403 17.78° C 90% 1010 hPa - - - -
1788500964 17.78° C 90% 1010 hPa - - - -
1788500542 17.78° C 90% 1010 hPa - - - -
1788497910 18.89° C 86% 1010.9 hPa - - - -
1788497235 19.44° C 86% 1010.9 hPa - - - -
1788496678 19.44° C 86% 1010.9 hPa - - - -
1788491331 20.56° C 82% 1011 hPa - - - -
1788490958 20.56° C 82% 1011 hPa - - - -
1788489082 20.56° C 81% 1011 hPa - - - -

* Rain since midnight (hover to see other rain measurements)
** Current wind speed in m/s (hover to see current wind gust speed)